Regional Weather Roundup
Issued by NWS Green Bay, WI

Home | Current Version | Previous Version | Text Only | Print | Product List | Glossary On
Versions: 1 2 3 4 5 6 7 8 9 10 11 12 13 14 15 16 17 18 19 20 21 22 23 24 25 26 27 28 29 30 31 32 33 34 35 36 37 38 39 40 41 42 43 44 45 46 47 48 49 50
000
ASUS43 KGRB 060459
RWRGRB

NORTH-CENTRAL AND NORTHEAST WISCONSIN REGIONAL WEATHER ROUNDUP
NATIONAL WEATHER SERVICE GREEN BAY WI
1200 AM CDT WED MAY 06 2015

WIZ005-009-010>012-018-019-060600-
NORTH CENTRAL WISCONSIN

CITY           SKY/WX    TMP DP  RH WIND       PRES   REMARKS
IRONWOOD       CLEAR     57  27  30 S8        30.18S
MANITOWISH WTR NOT AVBL
ARBOR VITAE    NOT AVBL
EAGLE RIVER    NOT AVBL
LAND O LAKES   NOT AVBL
RHINELANDER    PTCLDY    48  28  46 SE5       30.25S
PHILLIPS       NOT AVBL
ANTIGO         NOT AVBL
TOMAHAWK       NOT AVBL
MERRILL        NOT AVBL
$$

WIZ013-073-060600-
NORTHEAST WISCONSIN

CITY           SKY/WX    TMP DP  RH WIND       PRES   REMARKS
IRON MOUNTAIN  CLEAR     41  30  65 CALM      30.25S
MARINETTE      MOCLDY    48  34  57 CALM      30.25F
$$

WIZ017-030-035>037-045-060600-
CENTRAL WISCONSIN

CITY           SKY/WX    TMP DP  RH WIND       PRES   REMARKS
MEDFORD        NOT AVBL
WAUSAU         CLOUDY    56  24  29 E7        30.22S
MOSINEE        NOT AVBL
MARSHFIELD     CLOUDY    54  44  69 E9        30.22S
WISC RAPIDS    LGT RAIN  53  45  74 SE7       30.23F
STEVENS POINT  NOT AVBL
WAUPACA        NOT AVBL
SHAWANO        NOT AVBL
CLINTONVILLE   NOT AVBL
$$

WIZ038-039-048-051-060600-
FOX VALLEY

CITY           SKY/WX    TMP DP  RH WIND       PRES   REMARKS
NWS GREEN BAY  CLOUDY    53  35  50 S3        30.26R
APPLETON       NOT AVBL
OSHKOSH        CLOUDY    55  40  56 E7        30.24S
FOND DU LAC    LGT RAIN  52  44  74 E3        30.24F
$$

WIZ022-050-052-060600-
EAST CENTRAL WISCONSIN

CITY           SKY/WX    TMP DP  RH WIND       PRES   REMARKS
STURGEON BAY   CLOUDY    54  28  37 E5        30.28S
MANITOWOC      NOT AVBL
SHEBOYGAN      CLOUDY    48  37  65 CALM      30.26S
$$

LMZ563-521-522-541>543-060600-
LAKESHORE

STATION/POSITION TIME  TEMP    WIND        PRES    VSBY  WAVE
                       AIR SEA DIR/SP/G                  HT/PER
                 (UTC) (F)     (DEG/KT/KT) (MB)    (MI)  (FT/S)
SHEBOYGAN LKSHOR 0400   47      10/  4/  4 1025.2F
KEWAUNEE LKSHORE 0400   47     300/  2/  3 1023.6F
NORTHPORT PIER   0400   49      CALM  /  1 1024.7S
SISTER BAY LKSHO 0400   46        CALM       N/A
CHAMBERS ISLAND  0400   43        CALM     1024.7F
MENOMINEE LKSHOR 0400   50     340/  3/  3 1025.2F
$$


USA.gov is the U.S. government's official web portal to all federal, state and local government web resources and services.